Location: Newark
(52.5667°N, 8.8000°W)
Time: 13:37:21
(UTC+00:00)

N. Korean satellite - Pass Details

Date: 29 January 2020
Orbit: 456 x 505 km, 97.2° (Epoch: 24 February)

Event Time Altitude Azimuth Distance (km) Brightness Sun altitude
Rises 17:46:57 0° 180° (S) 2,465 10.5 -5.3°
Reaches altitude 10° 17:49:02 10° 187° (S) 1,599 9.6 -5.5°
Maximum altitude 17:52:19 44° 261° (W) 648 7.9 -6.0°
Drops below altitude 10° 17:55:41 10° 335° (NNW) 1,627 9.3 -6.5°
Sets 17:57:49 0° 342° (NNW) 2,516 10.2 -6.8°
